星链-5600 (STARLINK-5600 )

导读 | 星芒AI

STARLINK-5600 是 SpaceX Starlink 卫星互联网项目中的一颗低轨卫星,属于第56批发射的“星链”卫星之一。该卫星运行在约550公里高度的近地轨道,旨在为全球用户提供高速、低延迟的宽带互联网服务。STARLINK-5600 采用先进推进系统和激光通信技术,支持与其他星链卫星的高速数据传输,提升网络稳定性和覆盖范围。作为星链计划的重要组成部分,它有助于拓展偏远地区的网络接入能力,推动全球互联网普及。

基本信息
目录编号:
57357
目录名称:
STARLINK-5600
国际标识:
2023-099AF
轨道中心:
EARTH
卫星名称:
星链-5600
卫星全名:
星链-5600 (STARLINK-5600 )
卫星状态:
在轨 (已飞行889 天)
发射日期:
2023-07-16 UTC
国别 :
美国 (US)
星等 :
--
轨道信息
数据来源 国际轨道数据
星历时间: 2025-12-21T12:32:31+0800
10小时前
查看轨道信息
半长轴: 6937.189km
偏心率: 0.000112
轨道倾角: 43.005°
近地点辐角 269.220°
升交点赤经 302.877°
平近点角 90.851°
近地点: 558.275km
远地点: 559.829km
周期: 95.837分钟
每日圈数: 15.025452
详细信息
固有亮度:
5
最大亮度:
2.5
卫星平台:
Starlink v1.5
覆盖范围:
全球
运营商:
太空探索技术公司
运营商所在国:
美国
制造商(研发单位):
太空探索技术公司
制造商所在国:
美国
使用方式:
暂无
卫星简介
星链(Starlink)计划是由太空探索技术公司(SpaceX)提出的一个巨型低轨卫星互联网星座项目,计划在2019年至2024年间在太空搭建由约1.2万颗卫星组成的“星链”网络,其中1584颗将部署在地球上空550千米处的近地轨道,并从2020年开始工作。该卫星仍在工作。
2D轨道图
3D轨道图
轨道高度分析图
轨道倾角分析图
轨道综合分析图
查看轨道综合分析图